TimeMDT,TemperatureF,Dew PointF,Humidity,Sea Level PressureIn,VisibilityMPH,Wind Direction,Wind SpeedMPH,Gust SpeedMPH,PrecipitationIn,Events,Conditions,WindDirDegrees,DateUTC
12:53 AM,43.0,30.9,62,29.92,10.0,ESE,4.6,-,N/A,,Clear,120,2012-10-03 06:53:00
1:53 AM,39.9,30.0,68,29.92,10.0,SE,4.6,-,N/A,,Clear,130,2012-10-03 07:53:00
2:53 AM,39.9,30.0,68,29.91,10.0,Calm,Calm,-,N/A,,Clear,0,2012-10-03 08:53:00
3:53 AM,36.0,28.9,76,29.92,10.0,Calm,Calm,-,N/A,,Clear,0,2012-10-03 09:53:00
4:53 AM,34.0,28.0,79,29.94,10.0,Calm,Calm,-,N/A,,Clear,0,2012-10-03 10:53:00
5:53 AM,33.1,28.0,82,29.96,10.0,Calm,Calm,-,N/A,,Clear,0,2012-10-03 11:53:00
6:53 AM,33.1,27.0,78,30.00,10.0,Calm,Calm,-,N/A,,Clear,0,2012-10-03 12:53:00
7:53 AM,34.0,30.0,85,30.03,10.0,Calm,Calm,-,N/A,,Clear,0,2012-10-03 13:53:00
9:53 AM,53.1,30.9,43,29.97,10.0,Calm,Calm,-,N/A,,Clear,0,2012-10-03 15:53:00
10:53 AM,62.6,32.0,32,30.07,10.0,Calm,Calm,-,N/A,,Clear,0,2012-10-03 16:53:00
11:53 AM,73.0,25.0,17,29.89,10.0,West,15.0,20.7,N/A,,Clear,280,2012-10-03 17:53:00
12:53 PM,73.9,23.0,15,29.86,10.0,West,20.7,28.8,N/A,,Clear,270,2012-10-03 18:53:00
1:53 PM,73.9,24.1,16,29.86,10.0,WSW,15.0,24.2,N/A,,Clear,250,2012-10-03 19:53:00
2:53 PM,71.1,23.0,16,29.87,10.0,WSW,17.3,29.9,N/A,,Scattered Clouds,250,2012-10-03 20:53:00
3:53 PM,72.0,24.1,17,29.89,10.0,West,15.0,24.2,N/A,,Clear,280,2012-10-03 21:53:00
4:53 PM,71.1,21.0,15,29.91,10.0,NW,11.5,-,N/A,,Mostly Cloudy,310,2012-10-03 22:53:00
5:53 PM,69.1,7.0,9,29.94,10.0,NNW,15.0,28.8,N/A,,Clear,330,2012-10-03 23:53:00
6:53 PM,62.1,18.0,18,30.01,10.0,North,16.1,27.6,N/A,,Clear,350,2012-10-04 00:53:00
7:53 PM,55.0,23.0,29,30.09,10.0,NW,5.8,-,N/A,,Clear,320,2012-10-04 01:53:00
8:53 PM,46.9,27.0,46,30.13,10.0,WNW,8.1,-,N/A,,Clear,300,2012-10-04 02:53:00
9:53 PM,42.1,27.0,55,30.16,10.0,SW,13.8,-,N/A,,Clear,220,2012-10-04 03:53:00
10:53 PM,41.0,26.1,55,30.16,10.0,WSW,13.8,-,N/A,,Clear,240,2012-10-04 04:53:00
11:53 PM,37.9,26.1,62,30.14,10.0,WSW,10.4,-,N/A,,Clear,240,2012-10-04 05:53:00